Date String (YYYY-MM-DD hh:mm:ss) UTC,Instrument flags,absolute air pressure of the measurement (hPa),sample flow rate (lpm),inlet stack bypass flow (lpm),air temperature of the measurement (°C),ambient temperature measured by the external sensor (°C),aerosol sample conditioner tube jacket temperature (°C),OPC LED temperature (°C),internal box temperature (°C),relative humidity of the measurement (%),span deviation,mass concentration of particles derived from Lorenz-Mie calculation of OPC scattering (μg/m³),mass concentration of particles derived from Lorenz-Mie calculation of OPC scattering (μg/m³),mass concentration of particles derived from Lorenz-Mie calculation of OPC scattering (μg/m³)
DateTimeUTC,F1_M11,P_M11,Q1_M11,Q2_M11,T1_M11,T2_M11,T3_M11,T4_M11,T5_M11,U1_M11,ZSPAN_M11,X0_M11,X2_M11,X1_M11
2024-03-21 15:00:00,SystemResetWarning,0825.9,5.00,000.00,020.5,019.9,000.0,028.9,022.3,17.6,0003.7,0012.42,0005.46,0004.82
2024-03-21 15:01:00,SystemResetWarning,0825.9,4.99,000.00,020.5,019.9,000.0,028.9,022.3,18.6,0004.4,0012.72,0005.53,0004.88
2024-03-21 15:02:00,SystemResetWarning,0826.0,4.99,000.00,020.5,020.0,000.0,028.9,022.3,19.5,0004.4,0012.97,0005.62,0004.95
2024-03-21 15:03:00,SystemResetWarning,0825.9,5.00,000.00,020.5,020.0,000.0,028.9,022.3,19.1,0004.3,0013.65,0005.71,0005.01
2024-03-21 15:04:00,SystemResetWarning,0825.9,5.02,000.00,020.5,020.0,000.0,028.9,022.3,19.7,0005.1,0014.11,0005.82,0005.08
2024-03-21 15:05:00,SystemResetWarning,0825.9,5.00,000.00,020.5,020.0,000.0,028.9,022.3,20.0,0005.4,0014.35,0005.92,0005.15
2024-03-21 15:06:00,SystemResetWarning,0825.9,5.00,000.00,020.5,020.0,000.0,028.9,022.3,18.2,0004.9,0013.87,0005.93,0005.19
2024-03-21 15:07:00,SystemResetWarning,0825.9,4.99,000.00,020.5,020.0,000.0,028.9,022.3,18.7,0005.1,0013.12,0005.98,0005.26
2024-03-21 15:08:00,SystemResetWarning,0825.9,4.99,000.00,020.6,020.0,000.0,028.9,022.4,18.5,0004.8,0013.52,0006.01,0005.30
2024-03-21 15:09:00,SystemResetWarning,0825.9,5.00,000.00,020.6,020.0,000.0,028.9,022.4,18.1,0004.8,0013.64,0006.07,0005.35
2024-03-21 15:10:00,SystemResetWarning,0825.8,5.00,000.00,020.6,020.0,000.0,029.0,022.4,18.1,0004.5,0013.70,0006.12,0005.34
2024-03-21 15:11:00,SystemResetWarning,0825.9,5.01,000.00,020.6,020.0,000.0,029.0,022.4,18.6,0004.3,0013.16,0006.12,0005.33
2024-03-21 15:12:00,SystemResetWarning,0825.9,5.00,000.00,020.6,020.1,000.0,029.0,022.4,18.7,0003.8,0012.97,0006.11,0005.34
2024-03-21 15:13:00,SystemResetWarning,0825.8,4.99,000.00,020.6,020.1,000.0,029.0,022.4,19.0,0003.7,0013.07,0006.07,0005.34
2024-03-21 15:14:00,SystemResetWarning,0825.9,5.00,000.00,020.6,020.1,000.0,029.0,022.4,19.4,0003.7,0013.77,0006.05,0005.31
2024-03-21 15:15:00,SystemResetWarning,0825.9,5.01,000.00,020.6,020.1,000.0,029.0,022.4,19.4,0003.4,0013.78,0006.01,0005.28
2024-03-21 15:16:00,SystemResetWarning,0825.9,5.01,000.00,020.6,020.1,000.0,029.0,022.5,19.3,0003.3,0013.26,0005.95,0005.25
2024-03-21 15:17:00,SystemResetWarning,0825.9,5.00,000.00,020.7,020.1,000.0,029.0,022.5,19.1,0003.3,0013.23,0005.94,0005.22
2024-03-21 15:18:00,SystemResetWarning,0825.9,4.99,000.00,020.7,020.2,000.0,029.0,022.5,18.5,0003.4,0013.24,0005.90,0005.17
2024-03-21 15:19:00,SystemResetWarning,0825.9,5.00,000.00,020.7,020.2,000.0,029.0,022.5,18.6,0003.4,0013.27,0005.83,0005.12
2024-03-21 15:20:00,SystemResetWarning,0826.0,5.00,000.00,020.7,020.2,000.0,029.0,022.5,18.8,0003.4,0013.16,0005.83,0005.09
2024-03-21 15:21:00,SystemResetWarning,0825.9,5.01,000.00,020.7,020.2,000.0,029.1,022.5,19.2,0003.5,0012.72,0005.79,0005.07
2024-03-21 15:22:00,SystemResetWarning,0826.0,5.00,000.00,020.7,020.2,000.0,029.1,022.5,19.0,0003.8,0012.47,0005.74,0005.05
2024-03-21 15:23:00,SystemResetWarning,0826.0,5.00,000.00,020.7,020.2,000.0,029.1,022.5,19.0,0003.8,0013.14,0005.69,0005.02
2024-03-21 15:24:00,SystemResetWarning,0825.9,5.00,000.00,020.7,020.2,000.0,029.1,022.6,19.2,0004.0,0013.78,0005.71,0005.00
2024-03-21 15:25:00,SystemResetWarning,0825.9,4.99,000.00,020.8,020.2,000.0,029.1,022.6,19.6,0004.0,0012.79,0005.71,0004.98
2024-03-21 15:26:00,SystemResetWarning,0825.9,4.99,000.00,020.8,020.2,000.0,029.1,022.6,19.6,0004.3,0013.60,0005.69,0004.96
2024-03-21 15:27:00,SystemResetWarning,0825.9,4.99,000.00,020.8,020.3,000.0,029.1,022.6,19.4,0004.3,0013.86,0005.70,0004.95
2024-03-21 15:28:00,SystemResetWarning,0825.9,5.00,000.00,020.8,020.3,000.0,029.1,022.6,19.7,0004.5,0013.89,0005.69,0004.93
2024-03-21 15:29:00,SystemResetWarning,0826.0,5.00,000.00,020.8,020.3,000.0,029.2,022.6,20.3,0004.7,0013.90,0005.71,0004.94
2024-03-21 15:30:00,SystemResetWarning,0826.0,5.00,000.00,020.8,020.3,000.0,029.2,022.6,20.7,0004.4,0013.40,0005.80,0004.97
2024-03-21 15:31:00,SystemResetWarning,0826.0,5.00,000.00,020.8,020.3,000.0,029.2,022.6,20.3,0004.8,0013.24,0005.80,0004.98
2024-03-21 15:32:00,SystemResetWarning,0826.0,5.00,000.00,020.9,020.3,000.0,029.2,022.7,20.0,0004.5,0013.14,0005.76,0004.97
2024-03-21 15:33:00,SystemResetWarning,0826.0,5.00,000.00,020.9,020.3,000.0,029.2,022.7,19.6,0004.3,0013.03,0005.77,0004.96
2024-03-21 15:34:00,SystemResetWarning,0826.0,5.00,000.00,020.9,020.3,000.0,029.2,022.7,19.7,0004.4,0012.33,0005.74,0004.95
2024-03-21 15:35:00,SystemResetWarning,0826.0,5.01,000.00,020.9,020.4,000.0,029.2,022.7,19.3,0003.9,0011.51,0005.67,0004.94
2024-03-21 15:36:00,SystemResetWarning,0826.0,5.01,000.00,020.9,020.4,000.0,029.2,022.7,19.1,0003.5,0011.55,0005.63,0004.92
2024-03-21 15:37:00,SystemResetWarning,0826.0,5.00,000.00,020.9,020.4,000.0,029.2,022.7,19.1,0003.2,0010.77,0005.63,0004.90
2024-03-21 15:38:00,SystemResetWarning,0826.0,5.00,000.00,020.9,020.4,000.0,029.3,022.7,19.9,0003.5,0010.82,0005.65,0004.90
2024-03-21 15:39:00,SystemResetWarning,0826.0,5.00,000.00,020.9,020.4,000.0,029.3,022.7,20.0,0003.5,0011.80,0005.70,0004.92
2024-03-21 15:40:00,SystemResetWarning,0826.0,5.00,000.00,021.0,020.4,000.0,029.3,022.8,19.9,0003.9,0012.15,0005.65,0004.91
2024-03-21 15:41:00,SystemResetWarning,0826.1,5.00,000.00,021.0,020.4,000.0,029.3,022.8,19.6,0003.6,0012.30,0005.58,0004.89
2024-03-21 15:42:00,SystemResetWarning,0826.0,5.00,000.00,021.0,020.5,000.0,029.3,022.8,18.7,0003.1,0012.88,0005.51,0004.84
2024-03-21 15:43:00,SystemResetWarning,0826.0,5.00,000.00,021.0,020.5,000.0,029.3,022.8,18.5,0002.9,0013.16,0005.49,0004.80
2024-03-21 15:44:00,SystemResetWarning,0826.0,4.99,000.00,021.0,020.5,000.0,029.3,022.8,18.6,0002.7,0013.16,0005.47,0004.75
2024-03-21 15:45:00,SystemResetWarning,0826.0,5.00,000.00,021.0,020.5,000.0,029.3,022.8,18.7,0002.8,0013.17,0005.44,0004.71
2024-03-21 15:46:00,SystemResetWarning,0826.0,4.99,000.00,021.0,020.5,000.0,029.3,022.8,18.4,0002.8,0012.79,0005.41,0004.64
2024-03-21 15:47:00,SystemResetWarning,0826.0,5.00,000.00,021.0,020.5,000.0,029.4,022.9,18.1,0002.8,0012.68,0005.32,0004.55
2024-03-21 15:48:00,SystemResetWarning,0826.0,5.01,000.00,021.1,020.5,000.0,029.4,022.9,16.6,0003.3,0012.77,0005.17,0004.44
2024-03-21 15:49:00,SystemResetWarning,0826.0,5.01,000.00,021.1,020.6,000.0,029.4,022.9,17.1,0001.7,0012.03,0004.99,0004.29
2024-03-21 15:50:00,SystemResetWarning,0826.0,4.99,000.00,021.1,020.6,000.0,029.4,022.9,15.9,0000.0,0010.60,0004.68,0004.02
2024-03-21 15:51:00,SystemResetWarning,0826.0,4.98,000.00,021.1,020.6,000.0,029.4,022.9,15.5,0000.0,0010.58,0004.59,0003.92
2024-03-21 15:52:00,SystemResetWarning,0826.0,4.99,000.00,021.1,020.6,000.0,029.4,022.9,17.8,0000.0,0010.52,0004.46,0003.78
2024-03-21 15:53:00,SystemResetWarning,0826.0,5.00,000.00,021.1,020.6,000.0,029.4,023.0,18.4,0000.0,0010.42,0004.35,0003.70
2024-03-21 15:54:00,SystemResetWarning,0826.0,5.00,000.00,021.1,020.6,000.0,029.5,023.0,17.4,0000.0,0010.37,0004.27,0003.61
2024-03-21 15:55:00,SystemResetWarning,0826.0,5.00,000.00,021.2,020.7,000.0,029.5,023.0,16.0,0000.0,0010.61,0004.13,0003.49
2024-03-21 15:56:00,SystemResetWarning,0826.1,5.00,000.00,021.2,020.7,000.0,029.5,023.0,16.2,0000.0,0010.70,0003.98,0003.37
2024-03-21 15:57:00,SystemResetWarning,0826.1,5.00,000.00,021.2,020.7,000.0,029.5,023.0,17.5,0000.0,0010.84,0003.90,0003.29
2024-03-21 15:58:00,SystemResetWarning,0826.1,5.00,000.00,021.2,020.7,000.0,029.5,023.0,18.8,0000.0,0011.28,0003.87,0003.26
2024-03-21 15:59:00,SystemResetWarning,0826.2,5.00,000.00,021.2,020.7,000.0,029.5,023.0,19.2,0000.0,0010.71,0003.90,0003.30
